Sigfox identifier Datetime Temperature Humidity SNR
003BDEEC 2018-10-09 08:47:01 21.2 38 16.9
003BDEEC 2018-10-09 07:43:04 21.2 38 16.9
003BDEEC 2018-10-09 06:39:06 21.2 38 17
003BDEEC 2018-10-09 05:35:08 21.2 37 16.9
003BDEEC 2018-10-09 01:19:25 21.2 37 17
003BDEEC 2018-10-09 00:15:26 21.2 37 17
003BDEEC 2018-10-08 23:11:27 21.2 37 17
003BDEEC 2018-10-08 22:07:32 21.2 37 17
003BDEEC 2018-10-08 21:03:34 21.2 37 16.9
003BDEEC 2018-10-08 19:59:36 21.2 37 17.1
003BDEEC 2018-10-08 18:55:39 21.1 37 17.1
003BDEEC 2018-10-08 17:51:44 21 37 17.3
003BDEEC 2018-10-08 16:47:51 21 37 17.1
003BDEEC 2018-10-08 15:43:57 21 37 13.8
003BDEEC 2018-10-08 09:20:29 20.9 37 13.8
003BDEEC 2018-10-08 08:16:34 20.8 37 13.9
003BDEEC 2018-10-08 07:12:38 20.8 37 13.9
003BDEEC 2018-10-08 06:08:42 20.9 38 13.7
003BDEEC 2018-10-08 05:04:47 20.9 38 13.6
003BDEEC 2018-10-08 04:00:51 21 38 13.8
003BDEEC 2018-10-08 02:56:53 21 38 14
003BDEEC 2018-10-08 01:53:00 21 38 13.9
003BDEEC 2018-10-08 00:49:09 21 38 13.9
003BDEEC 2018-10-07 23:45:13 21 38 13.7
003BDEEC 2018-10-07 22:41:17 21 38 18
003BDEEC 2018-10-07 21:37:23 21 38 17.9
003BDEEC 2018-10-07 20:33:27 21 38 18
003BDEEC 2018-10-07 19:29:37 21 38 18
003BDEEC 2018-10-07 18:25:41 21 38 18.1
003BDEEC 2018-10-07 17:21:50 21 38 18
003BDEEC 2018-10-07 16:17:56 21 38 17.9
003BDEEC 2018-10-07 13:06:19 21 38 17.9
003BDEEC 2018-10-07 12:02:24 21 38 17.9
003BDEEC 2018-10-07 10:58:34 21.1 38 17.9
003BDEEC 2018-10-07 09:54:38 21.1 39 17.9
003BDEEC 2018-10-07 08:50:45 21.2 39 17.9
003BDEEC 2018-10-07 06:43:02 21.2 39 20
003BDEEC 2018-10-07 05:39:13 21.2 39 21.4
003BDEEC 2018-10-07 04:35:26 21.2 39 21.4
003BDEEC 2018-10-07 03:31:30 21.2 39 21.5
003BDEEC 2018-10-07 02:27:35 21.2 39 21.4
003BDEEC 2018-10-07 01:23:41 21.2 39 21.5
003BDEEC 2018-10-07 00:19:48 21.2 39 21.4
003BDEEC 2018-10-06 23:15:53 21.2 39 21.4
003BDEEC 2018-10-06 22:11:59 21.2 39 21.4
003BDEEC 2018-10-06 21:08:01 21.2 39 21.4
003BDEEC 2018-10-06 20:04:07 21.2 39 21.4
003BDEEC 2018-10-06 17:56:20 21.3 39 21.4
003BDEEC 2018-10-06 16:52:29 21.3 39 21.4
003BDEEC 2018-10-06 15:48:29 21.3 39 19.9
003BDEEC 2018-10-06 14:44:35 21.3 39 19.9
003BDEEC 2018-10-06 13:40:38 21.3 39 19.9
003BDEEC 2018-10-06 11:32:50 21.4 39 19.9
003BDEEC 2018-10-06 10:29:00 21.4 39 19.8
003BDEEC 2018-10-06 09:25:04 21.4 39 19.8
003BDEEC 2018-10-06 08:21:10 21.4 39 19.8
003BDEEC 2018-10-06 07:17:16 21.4 39 19.8
003BDEEC 2018-10-06 06:13:24 21.5 39 19.8
003BDEEC 2018-10-06 05:09:31 21.4 39 19.8
003BDEEC 2018-10-06 04:05:36 21.4 39 19.7
003BDEEC 2018-10-06 03:01:42 21.5 39 19.7
003BDEEC 2018-10-06 01:57:45 21.6 39 17.4
003BDEEC 2018-10-06 00:53:50 21.5 39 12.3
003BDEEC 2018-10-05 23:49:57 21.7 39 17.4
003BDEEC 2018-10-05 22:46:01 21.6 39 17.4
003BDEEC 2018-10-05 21:42:06 21.7 39 17.4
003BDEEC 2018-10-05 20:38:15 21.7 38 17.3
003BDEEC 2018-10-05 19:34:22 21.7 38 17.5
003BDEEC 2018-10-05 18:30:27 21.7 38 17.4
003BDEEC 2018-10-05 17:26:35 21.5 38 17.5
003BDEEC 2018-10-05 16:22:37 21.4 37 17.6
003BDEEC 2018-10-05 15:18:44 21.4 37 17.6
003BDEEC 2018-10-05 14:14:52 21.4 36 17.6
003BDEEC 2018-10-05 13:10:59 21.3 36 17.6
003BDEEC 2018-10-05 12:07:02 21.2 35 17.6
003BDEEC 2018-10-05 08:55:23 21 34 17.6
003BDEEC 2018-10-05 06:47:32 21 35 19.9
003BDEEC 2018-10-05 05:43:40 21 35 19.8
003BDEEC 2018-10-05 04:39:45 21 35 19.9
003BDEEC 2018-10-05 02:31:52 21.1 35 19.9
003BDEEC 2018-10-05 01:27:56 21 35 20.5
003BDEEC 2018-10-05 00:24:04 21.1 35 20.5
003BDEEC 2018-10-04 22:16:17 21 35 20.5
003BDEEC 2018-10-04 21:12:23 21 35 20.4
003BDEEC 2018-10-04 20:08:29 21 35 20.4
003BDEEC 2018-10-04 19:04:33 20.9 36 20.4
003BDEEC 2018-10-04 18:00:40 20.9 36 20.5
003BDEEC 2018-10-04 16:56:46 20.8 36 20.4
003BDEEC 2018-10-04 14:49:01 20.6 36 18.5
003BDEEC 2018-10-04 11:37:23 20.4 37 18.5
003BDEEC 2018-10-04 09:29:41 20.2 38 18.6
003BDEEC 2018-10-04 08:25:45 20.2 38 18.6
003BDEEC 2018-10-04 07:21:54 20.2 39 18.5
003BDEEC 2018-10-04 05:14:02 20.3 40 18.5
003BDEEC 2018-10-04 04:10:02 20.3 41 18.5
003BDEEC 2018-10-04 03:06:10 20.4 41 18.5
003BDEEC 2018-10-04 02:02:18 20.4 41 18.5
003BDEEC 2018-10-04 00:58:22 20.4 42 18.6
003BDEEC 2018-10-03 23:54:27 20.4 42 18.6
003BDEEC 2018-10-03 22:50:33 20.4 42 68.9
003BDEEC 2018-10-03 21:46:38 20.5 42 68.9
003BDEEC 2018-10-03 20:42:43 20.5 43 68.9
003BDEEC 2018-10-03 19:38:50 20.4 43 68.9
003BDEEC 2018-10-03 18:34:54 20.5 43 68.9
003BDEEC 2018-10-03 17:31:07 20.6 43 68.9
003BDEEC 2018-10-03 16:27:08 20.6 44 68.9
003BDEEC 2018-10-03 15:23:18 20.6 44 68.9
003BDEEC 2018-10-03 12:11:37 20.4 41 68.9
003BDEEC 2018-10-03 10:03:45 20.4 41 68.9
003BDEEC 2018-10-03 08:59:50 20.2 39 68.9
003BDEEC 2018-10-03 07:55:57 20.2 38 68.9
003BDEEC 2018-10-03 06:52:09 20.4 40 68.9
003BDEEC 2018-10-03 05:48:14 20.4 40 68.9
003BDEEC 2018-10-03 04:44:20 20.4 40 68.9
003BDEEC 2018-10-03 02:36:22 20.4 41 68.9
003BDEEC 2018-10-03 01:32:24 20.4 41 68.9
003BDEEC 2018-10-02 23:24:33 20.4 41 68.9
003BDEEC 2018-10-02 22:20:39 20.4 40 68.9
003BDEEC 2018-10-02 21:16:40 20.4 40 68.9
003BDEEC 2018-10-02 20:12:44 20.4 40 68.9
003BDEEC 2018-10-02 19:08:53 20.4 40 68.9
003BDEEC 2018-10-02 18:05:01 20.4 40 69
003BDEEC 2018-10-02 17:01:09 20.6 41 69.2
003BDEEC 2018-10-02 15:57:17 20.6 40 69.4
003BDEEC 2018-10-02 13:49:24 20.6 40 16
003BDEEC 2018-10-02 12:45:29 20.6 40 16.2
003BDEEC 2018-10-02 11:41:35 20.8 43 16.3
003BDEEC 2018-10-02 10:37:39 20.6 43 16.5
003BDEEC 2018-10-02 09:33:46 20.6 44 15.7
003BDEEC 2018-10-02 08:29:51 20.3 42 15.9
003BDEEC 2018-10-02 07:25:55 20.4 41 15.5
003BDEEC 2018-10-02 06:21:58 20.4 43 15.5
003BDEEC 2018-10-02 05:17:59 20.4 43 15.8
003BDEEC 2018-10-02 04:14:00 20.4 43 16
003BDEEC 2018-10-02 03:10:02 20.4 43 16
003BDEEC 2018-10-02 02:06:02 20.4 43 14.4
003BDEEC 2018-10-02 01:02:03 20.5 43 14.8
003BDEEC 2018-10-01 23:58:02 20.5 43 15.2
003BDEEC 2018-10-01 22:54:05 20.6 43 15.5
003BDEEC 2018-10-01 21:50:10 20.6 43 15.5
003BDEEC 2018-10-01 20:46:11 20.6 43 16.2
003BDEEC 2018-10-01 19:42:14 20.6 43 16.3
003BDEEC 2018-10-01 18:38:15 20.6 43 17.3
003BDEEC 2018-10-01 17:34:13 20.6 42 18.3
003BDEEC 2018-10-01 16:30:15 20.5 45 19.2
003BDEEC 2018-10-01 15:26:19 17.9 56 0